(134846) = 2000 KN13 = 2001 QF54

Discovered at Socorro on 2000-05-28 by LINEAR.

Orbit

Orbit type: Main Belt

Note: WebGL enabled browser required.

epoch2024-03-31.0
epoch JD2460400.5
perihelion date2022-05-11.06722
perihelion JD2459710.56722
argument of perihelion (°)300.58367
ascending node (°)62.64031
inclination (°)4.57529
eccentricity0.1890217
perihelion distance (AU)2.4011049
Tisserand w.r.t. Jupiter3.2
ΔV w.r.t. Earth (km/sec)9.9
semimajor axis (AU)2.9607511
mean anomaly (°)133.47741
mean daily motion (°/day)0.19346440
aphelion distance (AU)3.520
period (years)5.09
P-vector [x]0.99598086
P-vector [y]0.08007154
P-vector [z]-0.04013329
Q-vector [x]-0.05479934
Q-vector [y]0.89920207
Q-vector [z]0.43408833
absolute magnitude15.21
phase slope0.15
uncertainty0
referenceMPEC 2024-F28
observations used800
oppositions21
arc length (days)11857
first opposition used1991
last opposition used2024
residual rms (arc-secs)0.71
perturbers coarse indicatorM-v
perturbers precise indicator003Ek
first observation date used1991-10-01.0
last observation date used2024-03-18.0
computer nameMPCLINUX
JD of orbit computation2456760.632469
perihelion JD uncertainty (days)7.0869E-05
argument of perihelion uncertainty (°)6.4494E-05
ascending node uncertainty (°)6.3089E-05
inclination uncertainty (°)4.4830E-06
eccentricity uncertainty 3.9315E-08
perihelion distance uncertainty (AU)1.1628E-07
Minimum Orbit Intersection Distances (in AU)
for orbit epoch: 2460400.5, reference: E2024-F28
Mercury2.03715
Venus1.6748
Earth1.40298
Mars1.00296
Jupiter1.93761
Saturn5.88746
Uranus14.946
Neptune27.0255

Observations

825 total observations over interval: 1991 10 01.32336 – 2024 03 18.123970
These data are available for download (format description).

Date (UT) J2000 RA J2000 Dec Magn Location Ref
1991 10 01.32336 00 31 32.20 -03 43 14.9   691 – Steward Observatory, Kitt Peak-Spacewatch MPS 33298
1991 10 01.34365 00 31 31.17 -03 43 19.1   691 – Steward Observatory, Kitt Peak-Spacewatch MPS 33298
1991 10 01.36403 00 31 30.18 -03 43 23.3 18.6 V 691 – Steward Observatory, Kitt Peak-Spacewatch MPS 33298
2000 05 07.36519 15 37 06.66 -18 14 00.4 18.9   704 – Lincoln Laboratory ETS, New Mexico MPS 17070
2000 05 07.37478 15 37 06.18 -18 13 59.6 18.5   704 – Lincoln Laboratory ETS, New Mexico MPS 17070
2000 05 07.38437 15 37 05.72 -18 13 57.8 18.9   704 – Lincoln Laboratory ETS, New Mexico MPS 17070
2000 05 28.23728 15 19 24.48 -17 33 55.1 19.5   704 – Lincoln Laboratory ETS, New Mexico MPS 15945
2000 05 28.25066 15 19 23.86 -17 33 52.8 20.0   704 – Lincoln Laboratory ETS, New Mexico MPS 15945
2000 05 28.26404 15 19 23.26 -17 33 52.0 19.8   704 – Lincoln Laboratory ETS, New Mexico MPS 15945
2000 05 29.20197 15 18 38.01 -17 32 08.4 19.1   704 – Lincoln Laboratory ETS, New Mexico MPS 15945
2000 05 29.21535 15 18 37.34 -17 32 05.9 19.5   704 – Lincoln Laboratory ETS, New Mexico MPS 15945
2000 05 29.24208 15 18 36.06 -17 32 03.0 19.5   704 – Lincoln Laboratory ETS, New Mexico MPS 15945
2000 05 31.27272 15 16 59.81 -17 28 23.6 20.5 V 691 – Steward Observatory, Kitt Peak-Spacewatch MPS 15945
2000 05 31.29468 15 16 58.74 -17 28 21.2 20.5 V 691 – Steward Observatory, Kitt Peak-Spacewatch MPS 15945
2000 05 31.31633 15 16 57.70 -17 28 19.2 20.1 V 691 – Steward Observatory, Kitt Peak-Spacewatch MPS 15945
2000 06 05.20500 15 13 18.73 -17 20 07.0 20.1 V 691 – Steward Observatory, Kitt Peak-Spacewatch MPS 15945
2000 06 05.22702 15 13 17.75 -17 20 04.9 20.2 V 691 – Steward Observatory, Kitt Peak-Spacewatch MPS 15945
2000 06 05.24899 15 13 16.77 -17 20 03.0 20.3 V 691 – Steward Observatory, Kitt Peak-Spacewatch MPS 15945
2001 08 12.58925 22 46 14.13 -15 58 22.8 18.8   608 – Haleakala-AMOS MPS 33578
2001 08 12.59941 22 46 13.73 -15 58 25.7 18.9   608 – Haleakala-AMOS MPS 33578
2001 08 12.60999 22 46 13.31 -15 58 28.8 19.1   608 – Haleakala-AMOS MPS 33578
2001 08 16.28605 22 43 47.65 -16 17 20.5 18.0   704 – Lincoln Laboratory ETS, New Mexico MPS 33578
2001 08 16.29836 22 43 47.14 -16 17 24.0 18.8   704 – Lincoln Laboratory ETS, New Mexico MPS 33578
2001 08 16.31156 22 43 46.63 -16 17 27.5 18.2   704 – Lincoln Laboratory ETS, New Mexico MPS 33578
2001 08 16.32373 22 43 46.05 -16 17 32.1 18.3   704 – Lincoln Laboratory ETS, New Mexico MPS 33578
2001 08 16.33617 22 43 45.53 -16 17 35.2 18.3   704 – Lincoln Laboratory ETS, New Mexico MPS 33578
2001 08 19.27728 22 41 39.96 -16 32 35.6 18.6   704 – Lincoln Laboratory ETS, New Mexico MPS 33578
2001 08 19.28996 22 41 39.40 -16 32 41.6 18.9   704 – Lincoln Laboratory ETS, New Mexico MPS 33578
2001 08 19.30264 22 41 38.82 -16 32 45.1 18.9   704 – Lincoln Laboratory ETS, New Mexico MPS 33578
2001 08 19.31547 22 41 38.18 -16 32 49.5 19.0   704 – Lincoln Laboratory ETS, New Mexico MPS 33578
2001 08 19.32812 22 41 37.55 -16 32 52.9 18.6   704 – Lincoln Laboratory ETS, New Mexico MPS 33578
2001 08 25.25437 22 37 06.63 -17 02 12.0 18.1 R 699 – Lowell Observatory-LONEOS MPS 34297
2001 08 25.25516 22 37 06.54 -17 02 12.4 18.2 R 699 – Lowell Observatory-LONEOS MPS 34297
2001 08 25.27006 22 37 05.87 -17 02 17.0   699 – Lowell Observatory-LONEOS MPS 34297
2001 08 25.27084 22 37 05.87 -17 02 17.1   699 – Lowell Observatory-LONEOS MPS 34297
2001 08 25.28576 22 37 05.08 -17 02 21.8   699 – Lowell Observatory-LONEOS MPS 34297
2001 08 25.28654 22 37 05.09 -17 02 21.7   699 – Lowell Observatory-LONEOS MPS 34297
2001 08 25.30144 22 37 04.29 -17 02 25.9   699 – Lowell Observatory-LONEOS MPS 34297
2001 08 25.30222 22 37 04.30 -17 02 25.9   699 – Lowell Observatory-LONEOS MPS 34297
2001 09 11.25580 22 23 51.05 -18 07 39.7 18.5   704 – Lincoln Laboratory ETS, New Mexico MPS 34297
2001 09 11.27172 22 23 50.29 -18 07 42.8 19.0   704 – Lincoln Laboratory ETS, New Mexico MPS 34297
2001 09 11.28560 22 23 49.70 -18 07 45.0 18.9   704 – Lincoln Laboratory ETS, New Mexico MPS 34297
2001 09 11.31531 22 23 48.37 -18 07 49.2 18.8   704 – Lincoln Laboratory ETS, New Mexico MPS 34297
2001 09 19.18332 22 18 36.26 -18 23 30.6 18.4   704 – Lincoln Laboratory ETS, New Mexico MPS 35729
2001 09 19.19840 22 18 35.69 -18 23 32.8 18.8   704 – Lincoln Laboratory ETS, New Mexico MPS 35729
2001 09 19.21281 22 18 35.16 -18 23 32.8 18.7   704 – Lincoln Laboratory ETS, New Mexico MPS 35729
2001 09 19.22738 22 18 34.59 -18 23 34.4 18.7   704 – Lincoln Laboratory ETS, New Mexico MPS 35729
2001 09 21.17841 22 17 27.97 -18 25 44.1 18.4   704 – Lincoln Laboratory ETS, New Mexico MPS 35729
2001 09 21.19301 22 17 27.42 -18 25 45.0 19.2   704 – Lincoln Laboratory ETS, New Mexico MPS 35729
2001 09 21.22299 22 17 26.38 -18 25 46.4 19.3   704 – Lincoln Laboratory ETS, New Mexico MPS 35729
2001 09 21.23737 22 17 25.88 -18 25 47.4 19.2   704 – Lincoln Laboratory ETS, New Mexico MPS 35729
2003 01 05.23440 06 32 15.32 +27 18 37.9 18.9   704 – Lincoln Laboratory ETS, New Mexico MPS 133227
2003 01 05.24998 06 32 14.39 +27 18 39.5 19.5   704 – Lincoln Laboratory ETS, New Mexico MPS 133227
2003 01 05.26547 06 32 13.44 +27 18 40.8 20.0   704 – Lincoln Laboratory ETS, New Mexico MPS 133227
2003 01 05.28093 06 32 12.58 +27 18 42.1 20.1   704 – Lincoln Laboratory ETS, New Mexico MPS 133227
2003 01 05.29648 06 32 11.59 +27 18 43.5 19.6   704 – Lincoln Laboratory ETS, New Mexico MPS 133227
2003 01 09.19298 06 28 29.91 +27 24 12.0   704 – Lincoln Laboratory ETS, New Mexico MPS 406744
2003 01 09.22381 06 28 28.30 +27 24 14.7   704 – Lincoln Laboratory ETS, New Mexico MPS 406744
2003 01 09.23920 06 28 27.20 +27 24 15.6   704 – Lincoln Laboratory ETS, New Mexico MPS 406744
2004 02 26.39322 11 32 13.83 +09 43 03.9 19.9   704 – Lincoln Laboratory ETS, New Mexico MPS 133227
2004 02 26.40556 11 32 13.26 +09 43 08.3 20.0   704 – Lincoln Laboratory ETS, New Mexico MPS 133227
2004 02 26.41678 11 32 12.79 +09 43 12.0 19.6   704 – Lincoln Laboratory ETS, New Mexico MPS 133227
2004 02 26.42906 11 32 12.27 +09 43 15.3 19.7   704 – Lincoln Laboratory ETS, New Mexico MPS 133227
2004 03 20.30464 11 14 49.11 +11 27 02.5 20.1   704 – Lincoln Laboratory ETS, New Mexico MPS 133227
2004 03 20.31588 11 14 48.65 +11 27 05.1 19.7   704 – Lincoln Laboratory ETS, New Mexico MPS 133227
2004 03 20.32922 11 14 48.01 +11 27 08.9 20.2   704 – Lincoln Laboratory ETS, New Mexico MPS 133227
2005 05 03.26582 15 03 07.52 -15 18 25.9 20.1 V 691 – Steward Observatory, Kitt Peak-Spacewatch MPS 133227
2005 05 03.28319 15 03 06.64 -15 18 23.3 19.8 V 691 – Steward Observatory, Kitt Peak-Spacewatch MPS 133227
2005 05 03.30056 15 03 05.74 -15 18 20.6 19.7 V 691 – Steward Observatory, Kitt Peak-Spacewatch MPS 133227
2005 05 09.32087 14 58 04.02 -15 03 03.2 18.7 R G96 – Mt. Lemmon Survey MPS 133857
2005 05 09.32754 14 58 03.70 -15 03 02.2 19.7 R G96 – Mt. Lemmon Survey MPS 133857
2005 05 09.33417 14 58 03.35 -15 03 01.2 19.5 R G96 – Mt. Lemmon Survey MPS 133857
2005 05 09.34080 14 58 03.02 -15 02 59.9 18.2 R G96 – Mt. Lemmon Survey MPS 133857
2006 08 12.30279 21 25 54.84 -22 50 12.8 18.0 R 644 – Palomar Mountain/NEAT MPS 175675
2006 08 12.32411 21 25 53.74 -22 50 18.3 17.9 R 644 – Palomar Mountain/NEAT MPS 175675
2006 08 12.34534 21 25 52.62 -22 50 23.9 17.9 R 644 – Palomar Mountain/NEAT MPS 175675
2006 08 23.21280 21 16 55.35 -23 30 44.4 19.5   704 – Lincoln Laboratory ETS, New Mexico MPS 175931
2006 08 23.22414 21 16 54.80 -23 30 47.6 19.1   704 – Lincoln Laboratory ETS, New Mexico MPS 175931
2006 08 23.23536 21 16 54.28 -23 30 49.5 19.3   704 – Lincoln Laboratory ETS, New Mexico MPS 175931
2006 08 23.25011 21 16 53.58 -23 30 51.0 18.2 R 644 – Palomar Mountain/NEAT MPS 175931
2006 08 23.27111 21 16 52.54 -23 30 55.1 18.0 R 644 – Palomar Mountain/NEAT MPS 175931
2006 08 23.29266 21 16 51.48 -23 30 58.8 17.9 R 644 – Palomar Mountain/NEAT MPS 175931
2006 08 24.21088 21 16 08.65 -23 33 40.1 18.5 R 644 – Palomar Mountain/NEAT MPS 176828
2006 08 24.23141 21 16 07.68 -23 33 43.8 18.8 R 644 – Palomar Mountain/NEAT MPS 176828
2006 08 24.25315 21 16 06.59 -23 33 47.7 18.7 R 644 – Palomar Mountain/NEAT MPS 176828
